Flag for USA

Past Weather in Tallahassee, Florida, USA — Yesterday and Last 2 Weeks

Now
77 °F

Fog.


Feels Like: 78 °F
Forecast: 89 / 76 °F
Wind: No wind

Location: Tallahassee Regional Airport

Current Time: Jul 14, 2020 at 7:20:16 am

Latest Report: Jul 14, 2020 at 7:05 am


Visibility: 0 mi

Pressure: 29.97 "Hg

Humidity: 100%

Dew Point: 77 °F

Location of TallahasseeLocation

Past Weather in Tallahassee — Graph

°F

Tallahassee Temperature Yesterday

Maximum temperature yesterday: 94 °F (at 2:53 pm)
Minimum temperature yesterday: 74 °F (at 5:53 am)
Average temperature yesterday: 84 °F

High & Low Weather Summary for the Past Weeks

 TemperatureHumidityPressure
High96 °F (Jun 30, 2:53 pm)100% (Jul 4, 2:53 pm)30.06 "Hg (Jul 4, 2:53 pm)
Low72 °F (Jul 12, 3:53 am)40% (Jun 30, 3:53 pm)29.81 "Hg (Jul 12, 6:53 pm)
Average81 °F79%29.93 "Hg
* Reported Jun 29 6:53 am — Jul 14 6:23 am, Tallahassee. Weather by CustomWeather, © 2020

Note: Actual official high and low records may vary slightly from our data, if they occured in-between our weather recording intervals... More about our weather records

Tallahassee Weather History for the Previous 24 Hours

Scroll right to see more
 ConditionsComfort  
Time TempWeatherWind HumidityBarometerVisibility
6:23 am
Tue, Jul 14
77 °FFog.No wind100%29.97 "Hg2 mi
5:53 am76 °FPassing clouds.No wind97%29.95 "Hg8 mi
5:35 am77 °FPassing clouds.No wind96%29.95 "Hg9 mi
4:53 am77 °FClear.No wind96%29.93 "Hg10 mi
3:53 am77 °FPassing clouds.No wind96%29.93 "Hg10 mi
2:53 am78 °FPassing clouds.No wind93%29.94 "Hg10 mi
1:53 am80 °FPassing clouds.3 mph90%29.94 "Hg10 mi
12:53 am80 °FClear.No wind90%29.95 "Hg10 mi
11:53 pm
Mon, Jul 13
80 °FClear.5 mph90%29.95 "Hg10 mi
10:53 pm83 °FPartly cloudy.6 mph82%29.93 "Hg10 mi
9:53 pm84 °FPassing clouds.6 mph77%29.92 "Hg10 mi
8:53 pm85 °FPassing clouds.3 mph72%29.90 "Hg10 mi
7:53 pm87 °FScattered clouds.3 mph67%29.90 "Hg10 mi
6:53 pm84 °FThunderstorms. More clouds than sun.16 mph67%29.89 "Hg10 mi
6:33 pm92 °FThunderstorms. Broken clouds.9 mph60%29.89 "Hg10 mi
5:53 pm93 °FBroken clouds.7 mph58%29.88 "Hg10 mi
4:53 pm94 °FBroken clouds.9 mph54%29.88 "Hg10 mi
3:53 pm94 °FPartly sunny.3 mph52%29.89 "Hg10 mi
2:53 pm94 °FPartly sunny.10 mph52%29.91 "Hg10 mi
1:53 pm93 °FScattered clouds.12 mph52%29.92 "Hg10 mi
12:53 pm89 °FScattered clouds.7 mph59%29.93 "Hg10 mi
11:53 am87 °FPassing clouds.3 mph61%29.93 "Hg10 mi
10:53 am86 °FScattered clouds.10 mph61%29.94 "Hg10 mi
9:53 am82 °FScattered clouds.7 mph67%29.94 "Hg10 mi
8:53 am79 °FBroken clouds.5 mph72%29.92 "Hg10 mi
7:53 am76 °FScattered clouds.No wind82%29.90 "Hg10 mi
Weather by CustomWeather, © 2020

See weather overview